Location: *
(41.7492°S, 135.4150°W)
Time: 22:41:20
(UTC+00:00)

Cosmos 407 Rocket - Pass Details

Date: 20 September 2021
Orbit: 743 x 786 km, 74.0° (Epoch: 25 October)

Event Time Altitude Azimuth Distance (km) Brightness Sun altitude
Exits shadow 13:16:12 27° 323° (NW) 1,483 4.5 -18.8°
Maximum altitude 13:19:07 65° 248° (WSW) 874 3.5 -18.3°
Drops below altitude 10° 13:24:31 10° 166° (SSE) 2,380 6.4 -17.3°
Sets 13:26:58 0° 162° (SSE) 3,313 7.2 -16.8°
